Regional Weather Roundup
Issued by NWS New Orleans/Baton Rouge, LA

Home | Current Version | Previous Version | Text Only | Print | Product List | Glossary On
Versions: 1 2 3 4 5 6 7 8 9 10 11 12 13 14 15 16 17 18 19 20 21 22 23 24 25 26 27 28 29 30 31 32 33 34 35 36 37 38 39 40 41 42 43 44 45 46 47 48 49 50
000
ASUS44 KLIX 250013
RWRLIX
NEW ORLEANS REGIONAL WEATHER ROUNDUP
NATIONAL WEATHER SERVICE NEW ORLEANS LA
600 PM CST TUE JAN 24 2017

NOTE: "FAIR" INDICATES FEW OR NO CLOUDS BELOW 12,000 FEET WITH NO
      SIGNIFICANT WEATHER AND/OR OBSTRUCTIONS TO VISIBILITY.
      SKY/WX - SKY CONDITION AND SIGNIFICANT WEATHER.
      TMP - AIR TEMPERATURE.     DP    - DEWPOINT TEMPERATURE.
      RH  - RELATIVE HUMIDITY.   PRES  - PRESSURE.
      HI  - HEAT INDEX.          WCI   - WIND CHILL INDEX.

*  THESE STATIONS ARE NOT NWS OR FAA STATIONS AND ARE NOT UNDER
   NWS QUALITY CONTROL.

LAZ038-040-048-061>063-065>067-069-250100-
SOUTHEAST LOUISIANA

CITY           SKY/WX    TMP DP  RH WIND       PRES   REMARKS
N.O. AUDUBON   NOT AVBL
N.O. INTL ARPT PTCLDY    63  53  70 S10       29.90F
6HR MIN TEMP:  62; 6HR MAX TEMP:  68;

N.O. LAKEFRONT CLEAR     63  50  62 S9        29.91F
6HR MIN TEMP:  63; 6HR MAX TEMP:  69;

N.O. DOWNTOWN*   N/A     65  53  65 S9        29.92S
6HR MIN TEMP:  65; 6HR MAX TEMP:  70;

RESERVE*         N/A     63  46  54 S10       29.89S
6HR MIN TEMP:  63; 6HR MAX TEMP:  73;

SLIDELL        CLEAR     59  51  75 SE6       29.90F
6HR MIN TEMP:  59; 6HR MAX TEMP:  68;

BATON ROUGE    CLEAR     67  42  40 SE9       29.86S
6HR MIN TEMP:  67; 6HR MAX TEMP:  74;

BOOTHVILLE     CLEAR     60  45  57 S5        29.94S
6HR MIN TEMP:  60; 6HR MAX TEMP:  66;

BELLE CHASSE   PTCLDY    62  53  72 S8        29.91F
6HR MIN TEMP:  62; 6HR MAX TEMP:  68;

BOGALUSA*        N/A     63  44  49 S6        29.91S
GALLIANO*      CLEAR     63  53  70 SE3       29.92S
6HR MIN TEMP:  63; 6HR MAX TEMP:  69;

NEW ROADS*       N/A     66  44  44 S8        29.84S
6HR MIN TEMP:  65; 6HR MAX TEMP:  73;

GONZALES*        N/A     62  44  50 S6        29.87S
6HR MIN TEMP:  62; 6HR MAX TEMP:  73;

HAMMOND*       CLEAR     59  46  63 SE7       29.89S
HOUMA*         CLEAR     61  55  82 SE5       29.91S
PORT FOURCHON* CLEAR     66  55  68 SE6       29.92S

$$

MSZ070-080>082-250100-
SOUTHERN MISSISSIPPI

CITY           SKY/WX    TMP DP  RH WIND       PRES   REMARKS
MCCOMB         CLEAR     60  41  49 SE6       29.86F
6HR MIN TEMP:  60; 6HR MAX TEMP:  71;

GULFPORT       CLEAR     56  49  77 S5        29.93R
6HR MIN TEMP:  56; 6HR MAX TEMP:  63;

BILOXI         CLEAR     55  47  74 SW6       29.93R
6HR MIN TEMP:  55; 6HR MAX TEMP:  62;

PASCAGOULA     CLEAR     53  46  77 CALM      29.93S
6HR MIN TEMP:  53; 6HR MAX TEMP:  68;

STENNIS ARPT*  CLEAR     55  46  71 SE5       29.93S

$$

COASTAL OBSERVATIONS
LAKE AND NEARSHORE STATIONS

STATION/POSITION TIME  TEMP    WIND        PRES    WAVE
                       AIR SEA DIR/SP/G            HT/PER
                 (UTC) (F)     (DEG/KT/KT) (MB)    (FT/S)
PASCAGOULA       2342   60     220/  6/  8 1013.2
WAVELAND YACHT   2342   59 62  180/  4/  5 1013.5
GRAND ISLE       2342   64 67  180/  4/  6 1013.5
SOUTHWEST PASS   2342          140/  3/  4   N/A
NEW CANAL        2342   65 62  160/  4/  7 1011.8
SHELL BEACH      2342   60 65  150/  6/  8 1013.3

OFFSHORE STATIONS

STATION/POSITION TIME  TEMP    WIND        PRES    WAVE
                       AIR SEA DIR/SP/G            HT/PER
                 (UTC) (F)     (DEG/KT/KT) (MB)    (FT/S)

$$




USA.gov is the U.S. government's official web portal to all federal, state and local government web resources and services.